Weather History for San Luis Obispo, CA

Change the Weather History Date:

Friday, November 2, 2012

  Actual Average Record
Temperature  
Mean Temperature 65 °F -  
Max Temperature 77 °F 76 °F 98 °F (1966)
Min Temperature 53 °F 48 °F 36 °F (2002)
Growing Degree Days 15 (Base 50)    
Moisture  
Dew Point 53 °F    
Average Humidity 81    
Maximum Humidity 100    
Minimum Humidity 39    
Precipitation  
Precipitation 0.00 in - - ()
Sea Level Pressure  
Sea Level Pressure 30.00 in    
Wind  
Wind Speed 4 mph (NW)    
Max Wind Speed 22 mph    
Max Gust Speed 31 mph    
Visibility 8 miles    
Events Fog    
Averages and records for this station are not official NWS values.
T = Trace of Precipitation, MM = Missing Value Source: NWS Daily Summary

Daily Weather History Graph

Daily Weather History Graph

Search for Another Location

Airport:

Trip Planner

Search our weather history database for the weather conditions in past years. The results will help you decide how hot, cold, wet, or windy it might be!

Date:

Astronomy

Nov. 02, 2012 Rise Set
Actual Time 7:25 AM PDT 6:06 PM PDT
Civil Twilight 6:59 AM PDT 6:32 PM PDT
Nautical Twilight 6:29 AM PDT 7:02 PM PDT
Astronomical Twilight 5:59 AM PDT 7:32 PM PDT
Moon 9:02 PM PDT (11/2) 10:45 AM PDT (11/2)
Length of Visible Light 11h 33m
Length of Day
10h 40m
Waning Gibbous, 86% of the Moon is Illuminated
Nov 2
Waning Gibbous
Nov 6
Last Quarter
Nov 13
New
Nov 20
First Quarter
Nov 28
Full

Hourly Weather History & Observations

Time (PDT) Temp. Dew Point Humidity Pressure Visibility Wind Dir Wind Speed Gust Speed Precip Events Conditions
12:28 AM 55.4 °F 55.4 °F 100% 30.01 in 1.0 mi Calm Calm - N/A   Mist
12:32 AM 55.4 °F 55.4 °F 100% 30.01 in 3.0 mi Calm Calm - N/A   Overcast
12:35 AM 55.4 °F 55.4 °F 100% 30.01 in 1.5 mi Calm Calm - N/A   Overcast
12:42 AM 55.4 °F 55.4 °F 100% 30.01 in 0.5 mi Calm Calm - N/A Fog Fog
12:56 AM 55.9 °F 54.0 °F 93% 30.01 in 0.8 mi WNW 3.5 mph - N/A   Mist
1:02 AM 55.4 °F 53.6 °F 94% 30.01 in 2.0 mi Calm Calm - N/A   Mostly Cloudy
1:09 AM 55.4 °F 53.6 °F 94% 30.01 in 5.0 mi WSW 3.5 mph - N/A   Mostly Cloudy
1:20 AM 55.4 °F 53.6 °F 94% 30.01 in 3.0 mi Calm Calm - N/A   Scattered Clouds
1:23 AM 55.4 °F 53.6 °F 94% 30.01 in 1.8 mi SE 3.5 mph - N/A   Mostly Cloudy
1:33 AM 55.4 °F 53.6 °F 94% 30.01 in 3.0 mi WNW 4.6 mph - N/A   Scattered Clouds
1:56 AM 54.0 °F 53.1 °F 97% 30.00 in 10.0 mi Calm Calm - N/A   Clear
2:56 AM 53.1 °F 52.0 °F 96% 30.00 in 10.0 mi Calm Calm - N/A   Clear
3:56 AM 55.0 °F 52.0 °F 89% 29.99 in 10.0 mi Calm Calm - N/A   Clear
4:56 AM 54.0 °F 51.1 °F 90% 29.99 in 10.0 mi SSE 3.5 mph - N/A   Clear
5:56 AM 54.0 °F 51.1 °F 90% 29.99 in 10.0 mi Calm Calm - N/A   Clear
6:56 AM 54.0 °F 51.1 °F 90% 29.99 in 10.0 mi Calm Calm - N/A   Clear
7:56 AM 54.0 °F 50.0 °F 86% 30.01 in 10.0 mi Calm Calm - N/A   Partly Cloudy
8:56 AM 60.1 °F 53.1 °F 78% 30.03 in 10.0 mi Calm Calm - N/A   Partly Cloudy
9:56 AM 66.9 °F 53.1 °F 61% 30.03 in 10.0 mi WNW 4.6 mph - N/A   Scattered Clouds
10:56 AM 70.0 °F 52.0 °F 53% 30.02 in 10.0 mi NNW 9.2 mph - N/A   Clear
11:56 AM 73.9 °F 51.1 °F 45% 30.01 in 10.0 mi NW 9.2 mph - N/A   Clear
12:56 PM 77.0 °F 50.0 °F 39% 29.97 in 10.0 mi NNW 13.8 mph - N/A   Clear
1:56 PM 69.1 °F 54.0 °F 58% 29.96 in 10.0 mi NW 21.9 mph 31.1 mph N/A   Clear
2:56 PM 70.0 °F 52.0 °F 53% 29.95 in 10.0 mi NW 20.7 mph - N/A   Clear
3:56 PM 68.0 °F 53.1 °F 59% 29.96 in 10.0 mi NW 20.7 mph - N/A   Scattered Clouds
4:56 PM 66.9 °F 53.1 °F 61% 29.97 in 10.0 mi NW 17.3 mph - N/A   Clear
5:56 PM 61.0 °F 54.0 °F 78% 29.98 in 10.0 mi NW 12.7 mph - N/A   Clear
6:56 PM 60.1 °F 52.0 °F 75% 29.99 in 10.0 mi NNW 16.1 mph - N/A   Scattered Clouds
7:56 PM 59.0 °F 52.0 °F 78% 29.99 in 10.0 mi Calm Calm - N/A   Clear
8:56 PM 57.0 °F 52.0 °F 83% 30.00 in 10.0 mi NW 8.1 mph - N/A   Clear
9:56 PM 55.9 °F 51.1 °F 84% 30.00 in 10.0 mi Calm Calm - N/A   Clear
10:56 PM 54.0 °F 50.0 °F 86% 30.00 in 10.0 mi SSE 4.6 mph - N/A   Clear
11:56 PM 53.1 °F 48.9 °F 86% 30.00 in 10.0 mi North - - N/A   Clear